SCP
0 0 0 0 0 0 0 0 0 0 0 0 0 0 0 0 0 0 0 0 0 0 0 0 0 0 0 0 0 0 0 0 0 0 0 0 0 0 0 0 0 0 0
0 0 0 0 0 0 0 0 0 0 0 0 0 0 0 0 0 0 0 0 0 0 0 0 0 0 0 0 0 0 0 0 0 0 0 0 0 0 0 0 0 0 0
0 0 0 0 0 0 0 0 0 0 0 0 0 0 0 0 0 0 0 0 0 0 0 0 0 0 0 0 0 0 0 0 0 0 0 0 0 0 0 0 0 0 0
0 0 0 0 0 0 0 0 0 0 0 0 0 0 0 0 0 0 0 0 0 0 0 0 0 0 0 0 0 0 0 0 0 0 0 0 0 0 0 0 0 0 0
0 0 0 0 0 0 0 0 0 0 0 0 0 0 0 0 0 0 0 0 0 0 0 0 0 0 0 0 0 0 0 0 0 0 0 0 0 0 0 0 0 0 0
0 0 0 0 0 0 0 0 0 0 0 0 0 0 0 0 0 0 0 0 0 0 0 0 0 0 0 0 0 0 0 0 0 0 0 0 0 0 0 0 0 0 0
0 0 0 0 0 0 0 0 0 0 0 0 0 0 0 0 0 0 0 0 0 0 0 0 0 0 0 0 0 0 0 0 0 0 0 0 0 0 0 0 0 0 0
0 0 0 0 0 0 0 0 0 0 0 0 0 0 0 0 0 0 0 0 0 0 0 0 0 0 0 0 0 0 0 0 0 0 0 0 0 0 0 0 0 0 0
0 0 0 0 0 0 0 0 0 0 0 0 0 0 0 0 0 0 0 0 0 0 0 0 0 0 0 0 0 0 0 0 0 0 0 0 0 0 0 0 0 0 0
0 0 0 0 0 0 0 0 0 0 0 0 0 0 0 0 0 0 0 0 0 0 0 0 0 0 0 0 0 0 0 0 0 0 0 0 0 0 0 0 0 0 0
0 0 0 0 0 0 0 0 0 0 0 0 0 0 0 0 0 0 0 0 0 0 0 0 0 0 0 0 0 0 0 0 0 0 0 0 0 0 0 0 0 0 0
0 0 0 0 0 0 0 0 0 0 0 0 0 0 0 0 0 0 0 0 0 0 0 0 0 0 0 0 0 0 0 0 0 0 0 0 0 0 0 0 0 0 0
0 0 0 0 0 0 0 0 0 0 0 0 0 0 0 0 0 0 0 0 0 0 0 0 0 0 0 0 0 0 0 0 0 0 0 0 0 0 0 0 0 0 0
0 0 0 0 0 0 0 0 0 0 0 0 0 0 0 0 0 0 0 0 0 0 0 0 0 0 0 0 0 0 0 0 0 0 0 0 0 0 0 0 0 0 0
0 0 0 0 0 0 0 0 0 0 0 0 0 0 0 0 0 0 0 0 0 0 0 0 0 0 0 0 0 0 0 0 0 0 0 0 0 0 0 0 0 0 0
0 0 0 0 0 0 0 0 0 0 0 0 0 0 0 0 0 0 0 0 0 0 0 0 0 0 0 0 0 0 0 0 0 0 0 0 0 0 0 0 0 0 0
0 0 0 0 0 0 0 0 0 0 0 0 0 0 0 0 0 0 0 0 0 0 0 0 0 0 0 0 0 0 0 0 0 0 0 0 0 0 0 0 0 0 0
0 0 0 0 0 0 0 0 0 0 0 0 0 0 0 0 0 0 0 0 0 0 0 0 0 0 0 0 0 0 0 0 0 0 0 0 0 0 0 0 0 0 0
0 0 0 0 0 0 0 0 0 0 0 0 0 0 0 0 0 0 0 0 0 0 0 0 0 0 0 0 0 0 0 0 0 0 0 0 0 0 0 0 0 0 0
0 0 0 0 0 0 0 0 0 0 0 0 0 0 0 0 0 0 0 0 0 0 0 0 0 0 0 0 0 0 0 0 0 0 0 0 0 0 0 0 0 0 0
0 0 0 0 0 0 0 0 0 0 0 0 0 0 0 0 0 0 0 0 0 0 0 0 0 0 0 0 0 0 0 0 0 0 0 0 0 0 0 0 0 0 0
0 0 0 0 0 0 0 0 0 0 0 0 0 0 0 0 0 0 0 0 0 0 0 0 0 0 0 0 0 0 0 0 0 0 0 0 0 0 0 0 0 0 0
0 0 0 0 0 0 0 0 0 0 0 0 0 0 0 0 0 0 0 0 0 0 0 0 0 0 0 0 0 0 0 0 0 0 0 0 0 0 0 0 0 0 0
0 0 0 0 0 0 0 0 0 0 0 0 0 0 0 0 0 0 0 0 0 0 0 0 0 0 0 0 0 0 0 0 0 0 0 0 0 0 0 0 0 0 0
0 0 0 0 0 0 0 0 0 0 0 0 0 0 0 0 0 0 0 0 0 0 0 0 0 0 0 0 0 0 0 0 0 0 0 0 0 0 0 0 0 0 0
0 0 0 0 0 0 0 0 0 0 0 0 0 0 0 0 0 0 0 0 0 0 0 0 0 0 0 0 0 0 0 0 0 0 0 0 0 0 0 0 0 0 0
Wind_Speed
3 2 2 2 1 1 0 1 1 2 2 2 3 3 3 3 3 3 4 3 4 4 4 4 3 3 2 2 2 2 2 1 1 1 0 2 2 2 3 2 3 4 4
3 3 2 2 1 1 1 1 1 2 2 2 3 3 3 2 3 3 4 4 3 4 4 3 3 2 2 2 2 2 2 1 1 1 1 1 2 3 3 3 3 4 3
4 4 3 2 1 1 0 0 1 1 2 3 3 3 3 2 2 3 4 4 4 4 4 3 3 3 3 2 2 2 2 1 1 1 2 1 2 2 2 3 3 2 3
4 4 3 2 2 1 1 1 1 2 2 2 3 3 3 3 3 4 4 4 4 3 3 3 3 2 3 3 3 2 2 1 2 2 2 2 1 2 2 2 2 2 2
3 3 3 3 2 1 1 1 1 2 2 2 3 3 3 2 3 4 4 5 4 4 3 3 2 2 2 1 2 2 2 2 2 1 1 1 1 1 2 2 2 2 2
2 3 3 3 2 2 2 1 0 1 2 2 3 3 3 3 4 4 4 4 4 4 4 3 2 1 1 1 2 2 2 2 2 1 1 1 1 1 1 2 1 1 2
3 3 3 3 2 2 2 1 0 1 2 2 3 3 2 2 2 3 4 4 4 3 3 3 4 3 3 2 2 4 3 4 5 3 2 2 2 2 1 2 2 2 3
4 3 2 1 1 1 1 0 0 1 2 2 3 3 2 2 2 3 5 4 4 4 3 3 3 2 3 3 3 2 2 2 3 3 3 3 3 1 2 2 3 3 3
3 2 2 2 1 1 1 1 1 1 2 2 3 3 2 1 3 4 4 4 3 4 3 3 2 2 3 3 2 2 3 2 3 3 3 3 3 4 3 1 2 2 3
3 2 2 1 1 1 1 1 1 2 3 3 3 3 3 2 3 4 3 4 4 3 2 1 1 2 2 2 2 3 3 4 3 3 3 4 4 5 7 5 4 3 3
2 2 2 1 1 1 1 1 2 3 3 3 3 4 4 4 4 6 5 3 4 4 3 2 1 1 2 3 3 3 5 5 4 4 3 4 4 4 4 5 5 4 3
2 2 2 2 2 2 1 2 3 3 3 3 4 4 4 3 4 6 7 6 5 4 4 3 2 3 4 5 5 6 7 6 4 4 4 4 4 4 4 5 6 6 6
3 2 2 1 2 2 3 3 3 3 3 4 3 3 2 2 2 5 6 7 7 4 4 5 7 8 7 6 8 10 7 4 4 4 4 4 3 3 3 3 4 5 6
3 2 2 2 3 3 3 3 3 3 2 3 3 3 2 2 0 1 2 3 5 5 4 6 8 9 8 8 8 7 6 5 5 4 4 3 3 3 3 3 4 3 4
3 2 3 4 3 2 3 3 3 2 2 2 3 4 3 3 2 2 3 3 3 3 4 4 5 5 4 5 5 4 4 4 5 4 4 4 3 3 4 4 3 3 3
3 3 3 3 3 3 3 3 4 5 5 6 6 6 4 4 5 4 5 6 6 5 4 5 6 5 5 5 4 4 4 4 3 3 3 3 3 3 4 3 3 3 4
3 3 3 3 3 4 3 3 3 4 7 9 10 10 9 9 9 9 9 9 9 5 4 7 6 6 5 5 4 4 3 3 3 3 3 3 3 4 4 4 4 4 4
4 4 4 4 4 4 4 4 4 4 3 4 7 11 12 12 12 12 9 6 7 6 6 7 6 5 5 4 4 4 3 3 3 3 4 4 4 4 4 4 4 5 5
4 3 3 4 4 4 4 5 4 4 3 3 3 3 8 9 10 10 6 5 7 7 6 5 5 4 4 3 3 3 3 3 4 4 4 4 4 4 4 5 5 6 5
4 6 6 5 5 5 5 4 4 4 4 3 3 3 2 3 4 4 5 5 6 6 5 4 4 3 3 3 3 3 3 3 3 3 4 4 4 4 5 6 6 5 5
4 5 6 6 5 5 4 4 4 4 4 4 3 3 2 4 5 4 4 4 4 4 4 4 4 3 3 3 3 3 3 2 2 3 3 3 3 4 4 4 5 6 5
5 4 4 5 4 4 4 4 5 5 5 4 3 3 3 3 4 4 3 2 2 2 3 4 5 4 3 3 3 2 3 3 3 3 3 4 4 4 4 4 5 5 5
5 5 4 4 4 4 4 5 4 4 4 4 4 3 2 2 3 3 3 3 3 3 3 3 3 4 4 3 2 2 3 3 4 4 4 4 5 6 5 5 6 7 7
6 6 5 4 4 4 4 3 3 4 4 4 3 3 3 3 3 4 3 3 3 3 3 3 3 4 6 4 3 3 4 4 5 5 6 6 6 6 6 6 7 8 7
5 5 5 4 4 3 3 3 4 4 4 4 3 3 3 3 3 3 3 3 4 4 4 3 2 3 5 5 5 5 4 4 4 4 5 5 7 7 7 8 7 8 8
5 5 4 4 3 3 3 3 3 4 4 4 4 4 4 4 4 4 4 3 4 4 3 2 3 4 4 4 5 4 3 4 5 5 5 5 6 6 7 6 9 8 9
Wind_Direction
157 158 128 140 133 107 73 24 28 10 332 318 323 322 325 338 333 324 319 323 329 330 327 329 322 317 320 305 301 286 273 262 250 255 173 158 174 173 176 201 185 188 188
160 149 142 129 107 92 45 29 10 339 310 311 317 313 320 342 340 333 333 335 334 328 329 331 327 329 326 311 313 294 286 247 209 220 204 193 208 194 189 219 216 202 184
165 156 140 136 128 95 50 309 297 298 300 316 325 322 325 340 341 342 338 336 335 334 335 333 331 330 329 327 308 300 293 285 206 209 225 207 221 204 197 233 236 214 220
168 153 144 147 153 192 229 245 281 297 304 313 322 321 326 344 352 355 348 334 329 334 337 332 333 338 337 328 321 317 304 293 251 232 212 206 212 206 201 226 240 228 245
167 157 152 162 173 195 220 243 282 300 312 327 327 322 328 343 4 4 339 329 334 333 334 331 327 339 0 323 322 321 311 288 272 248 230 227 207 207 224 235 247 246 244
174 174 166 168 179 204 214 207 292 329 328 327 324 335 341 359 30 11 348 326 320 323 324 321 310 301 309 238 261 284 292 293 306 282 261 249 255 245 254 263 263 271 272
185 190 182 182 188 205 234 182 147 314 310 318 320 322 343 0 344 336 333 317 307 308 318 320 318 334 334 300 260 245 251 251 242 244 256 266 256 240 247 274 273 265 261
182 181 186 194 192 215 257 77 288 297 297 301 301 294 302 328 299 311 316 297 291 286 290 296 297 314 332 325 295 284 268 274 258 237 242 255 258 251 249 255 258 262 261
183 180 194 203 197 196 197 218 268 279 278 278 280 282 292 289 262 278 302 298 289 288 281 297 300 310 338 329 302 290 288 275 279 273 255 252 246 248 240 250 257 252 273
185 184 187 196 210 202 245 257 271 275 272 274 283 284 281 265 248 250 276 293 298 300 293 285 324 330 325 327 299 292 286 285 291 283 268 260 246 241 233 222 227 240 257
185 178 166 186 226 226 242 263 271 270 275 277 274 267 259 245 230 233 240 268 295 306 303 296 299 308 302 298 286 270 268 281 285 273 256 248 239 231 222 218 217 220 237
169 181 187 206 257 259 241 258 267 271 274 266 259 258 251 231 217 219 229 241 264 292 300 313 313 296 294 289 277 266 271 277 268 264 257 251 243 237 230 223 217 219 225
169 184 195 230 253 258 247 254 256 255 260 269 270 274 264 231 203 214 228 251 258 262 284 296 290 278 281 274 257 260 265 256 251 255 256 254 250 244 239 237 235 225 228
178 188 206 225 240 244 253 264 269 272 280 300 307 305 305 303 278 193 246 249 257 254 270 286 281 269 266 269 269 257 240 238 238 249 259 265 263 254 247 241 238 229 235
185 207 227 238 241 244 250 260 273 297 303 287 305 312 311 312 320 315 295 299 306 318 310 284 276 267 260 256 255 250 238 229 232 241 250 259 261 259 253 245 241 242 243
199 223 243 245 242 243 239 252 250 240 244 241 246 258 279 268 272 290 295 291 291 305 302 280 279 273 271 269 262 257 249 244 239 235 238 246 253 259 265 264 254 249 253
212 235 257 265 265 260 253 249 254 250 248 251 253 253 249 259 271 278 282 292 291 278 257 265 266 264 266 269 271 271 269 252 234 241 248 250 256 262 262 260 257 256 256
224 233 245 259 264 269 268 267 261 253 248 254 245 241 246 250 255 262 274 296 280 249 243 254 258 258 257 258 259 258 260 256 243 246 253 253 251 257 264 264 260 258 261
232 244 241 259 268 271 272 275 276 274 265 262 269 249 239 246 255 258 249 246 266 273 267 259 258 263 266 263 260 257 253 250 249 245 249 252 253 258 267 270 267 266 260
231 242 249 260 268 270 270 277 283 282 279 274 263 256 236 240 255 250 225 237 255 271 281 287 284 280 283 280 279 277 275 267 264 262 264 265 263 261 266 271 275 273 262
247 234 223 241 256 269 279 285 288 290 288 286 286 283 240 251 268 273 265 246 256 275 291 299 300 295 295 290 284 284 285 286 282 283 281 274 275 278 276 277 279 279 279
271 267 243 251 263 274 288 293 294 292 290 288 289 291 267 275 290 289 294 292 289 293 299 296 298 309 311 300 309 322 327 327 318 307 305 302 292 281 278 281 283 287 289
259 267 268 267 271 271 270 278 286 292 299 304 307 308 296 286 296 310 320 324 319 313 304 301 310 321 328 330 338 341 335 330 328 329 327 324 319 310 302 294 290 290 287
266 269 272 271 268 275 284 292 296 300 307 314 316 317 313 307 308 318 325 319 311 305 306 314 326 334 340 348 350 350 4 357 340 330 330 322 312 307 307 306 300 296 295
262 271 278 281 286 295 300 306 309 308 314 316 313 306 306 301 304 313 308 306 304 301 309 315 328 340 343 358 5 9 15 9 354 335 324 311 301 298 299 301 302 303 302
263 269 278 285 290 295 301 301 300 309 317 314 312 314 317 319 327 326 318 316 314 313 318 336 360 357 2 15 25 32 17 352 341 333 320 299 293 294 301 300 303 302 302